Overview Statistics Trail Chart Weather Telemetry Raw packets
 

This is the latest recevied weather packets stored in our database for station/object KB1WCR. If no packets are shown the sender has not sent any weather packets the latest 10 day(s).

<< 6 7 8 9 10 11 12 >>
Time Temp. Humidity Pressure Rain* Wind** Luminosity Snow
1788387689 17.22° C 91% 1021.9 hPa 0 mm - 30 W/m² -
1788387379 17.22° C 91% 1021.7 hPa 0 mm - 35 W/m² -
1788387074 17.78° C 90% 1021.7 hPa 0 mm - 40 W/m² -
1788386770 17.78° C 90% 1021.6 hPa 0 mm - 67 W/m² -
1788386464 17.78° C 90% 1021.7 hPa 0 mm - 60 W/m² -
1788386161 17.78° C 90% 1021.8 hPa 0 mm - 60 W/m² -
1788385855 17.78° C 89% 1021.7 hPa 0 mm - 60 W/m² -
1788385550 17.78° C 88% 1021.8 hPa 0 mm - 72 W/m² -
1788385249 17.78° C 88% 1021.8 hPa 0 mm - 93 W/m² -
1788384945 17.78° C 88% 1022 hPa 0 mm - 100 W/m² -
1788384644 17.78° C 88% 1021.9 hPa 0 mm - 70 W/m² -
1788384339 17.78° C 87% 1021.7 hPa 0 mm - 65 W/m² -
1788384030 18.33° C 86% 1022 hPa 0 mm - 84 W/m² -
1788383726 18.33° C 87% 1021.9 hPa 0 mm - 123 W/m² -
1788383420 18.33° C 86% 1021.8 hPa 0 mm - 87 W/m² -
1788383114 18.33° C 85% 1021.8 hPa 0 mm - 103 W/m² -
1788382813 18.33° C 85% 1021.7 hPa 0 mm - 117 W/m² -
1788382508 17.78° C 85% 1021.8 hPa 0 mm - 115 W/m² -
1788382203 18.33° C 85% 1022.2 hPa 0 mm - 106 W/m² -
1788381902 18.33° C 85% 1022.3 hPa 0 mm - 107 W/m² -
1788381598 18.33° C 84% 1022.2 hPa 0 mm - 124 W/m² -
1788381294 18.89° C 83% 1022.4 hPa 0 mm - 86 W/m² -
1788380992 18.89° C 84% 1022.3 hPa 0 mm - 124 W/m² -
1788380688 18.89° C 84% 1022.2 hPa 0 mm - 111 W/m² -
1788380385 18.89° C 83% 1022.1 hPa 0 mm - 167 W/m² -

* Rain latest hour (hover to see other rain measurements)
** Current wind speed in m/s (hover to see current wind gust speed)